Regional Weather Roundup
Issued by NWS State College, PA

Home | Current Version | Previous Version | Text Only | Print | Product List | Glossary Off
Versions: 1 2 3 4 5 6 7 8 9 10 11 12 13 14 15 16 17 18 19 20 21 22 23 24 25 26 27 28 29 30 31 32 33 34 35 36 37 38 39 40 41 42 43 44 45 46 47 48 49 50

124
ASUS41 KCTP 230610
RWRCTP
PHLRWRCTP ALL

REGIONAL WEATHER ROUNDUP
NATIONAL WEATHER SERVICE STATE COLLEGE PA
200 AM EDT SAT SEP 23 2017

Note: "fair" indicates few or no clouds below 12,000 feet with no
significant weather and/or obstructions to visibility.

* = STATION THAT DOES NOT REPORT PRECIPITATION /E.G. RAIN...SNOW...ETC/
    THUNDER OR FOG.

PAZ002>004-007>009-013>016-020>023-029>032-230700-
WESTERN PENNSYLVANIA

CITY           SKY/WX    TMP DP  RH WIND       PRES   REMARKS
ERIE           CLEAR     64  56  75 S3        30.09F
MEADVILLE      CLEAR     62  57  83 CALM      30.12F
FRANKLIN*      CLEAR     60  58  92 CALM      30.14S
NEW CASTLE     FAIR      59  58  96 NW3       30.12S
BEAVER COUNTY  NOT AVBL
BUTLER*        CLEAR     57  54  89 CALM      30.12S
PITTSBURGH INT PTCLDY    63  57  81 NW3       30.10S
PITTSBURGH     CLEAR     69  53  56 NE3       30.09F
INDIANA*       CLEAR     57  55  94 E3        30.14S
LATROBE        CLEAR     57  57 100 CALM      30.11S
WASHINGTON CO* CLEAR     55  54  94 CALM      30.11R
$$

PAZ004>006-010>012-017>019-024>028-033>037-041-042-045-046-049>053-230700-
CENTRAL PENNSYLVANIA

CITY           SKY/WX    TMP DP  RH WIND       PRES   REMARKS
BRADFORD       CLEAR     53  52  96 CALM      30.15S
DUBOIS         CLEAR     62  49  62 NE5       30.13S
CLEARFIELD     CLEAR     57  53  86 CALM      30.14R
JOHNSTOWN      CLEAR     64  51  62 CALM      30.14S
ALTOONA        CLEAR     59  54  83 CALM      30.12S
STATE COLLEGE  PTCLDY    58  55  88 CALM      30.11S
WILLIAMSPORT   CLEAR     58  54  86 CALM      30.08S
SELINSGROVE    PTCLDY    53  53 100 CALM      30.09R
FT INDIANTOWN  CLEAR     68  51  55 NE7       30.05S HAZE
CAPITAL CITY   CLEAR     61  56  83 SW5       30.06R
HARRISBURG     MOCLDY    65  61  87 NW10      30.04S
YORK           PTCLDY    54  54 100 CALM      30.05S
$$

PAZ038>040-043-044-047-048-054-055-060>062-067>071-230700-
EASTERN PENNSYLVANIA

CITY           SKY/WX    TMP DP  RH WIND       PRES   REMARKS
SCRANTON       CLEAR     59  50  72 E6        30.09S
MOUNT POCONO   CLEAR     62  52  69 NW7       30.10S
ALLENTOWN      CLEAR     63  52  67 SW5       30.03F
QUAKERTOWN*    CLEAR     66  50  55 N5        30.04S
READING        CLEAR     61  58  90 CALM      30.03S
LANCASTER      PTCLDY    63  57  81 CALM      30.04S
COATESVILLE    CLEAR     66  52  59 N6        30.05F
POTTSTOWN      CLEAR     64  54  69 W3        30.05S
BLUE BELL      CLEAR     64  52  63 CALM      30.03S
DOYLESTOWN     CLEAR     66  52  60 N5        30.01F
WILLOW GROVE   NOT AVBL
NORTH PHILA    CLEAR     70  56  61 N5        30.02R
PHILADELPHIA   PTCLDY    71  53  52 N5        30.01S
$$




USA.gov is the U.S. government's official web portal to all federal, state and local government web resources and services.